DateTimeUTC,F1_A11,F1_S11,BsB_S11,BsG_S11,BsR_S11,BbsB_S11,BbsG_S11,BbsR_S11,BaB_A11,BaG_A11,BaR_A11,T_S11,U_S11,P_S11,T1_A11
2020-07-22T00:00:00Z,00000388,20000608,,,,,,,,,,24.5,05.7,0674.4,30.8
2020-07-22T00:01:00Z,00000388,20000608,,,,,,,,,,24.5,05.7,0674.4,30.8
2020-07-22T00:02:00Z,00000388,20000608,,,,,,,,,,24.5,05.7,0674.4,30.8
2020-07-22T00:03:00Z,00000388,60000608,,,,,,,,,,24.5,05.7,0674.4,30.8
2020-07-22T00:04:00Z,00000388,40000608,0000.91,0001.51,0000.46,-000.02,0000.17,0000.35,0000.04,0000.04,0000.03,24.3,05.6,0675.4,30.8
2020-07-22T00:05:00Z,00000388,00000608,0001.70,0001.42,0000.30,0000.48,0000.04,0000.03,0000.14,0000.09,0000.29,24.3,05.7,0675.4,30.8
2020-07-22T00:06:00Z,00000388,00000608,0001.09,0000.34,0000.62,0000.08,0000.29,0000.38,0000.06,0000.10,0000.00,24.3,05.7,0675.4,30.8
2020-07-22T00:07:00Z,00000388,00000608,0001.40,0001.69,0001.24,-000.37,0000.02,0000.14,0000.08,0000.09,0000.10,24.2,05.7,0675.4,30.8
2020-07-22T00:08:00Z,00000388,00000608,0002.02,0001.14,0000.43,0001.60,0000.21,0000.34,0000.07,0000.24,-000.01,24.3,05.7,0675.4,30.8
2020-07-22T00:09:00Z,00000388,00000608,0000.72,0001.10,0000.80,0000.96,0000.39,0000.22,0000.22,0000.02,0000.14,24.2,05.7,0675.5,30.8
2020-07-22T00:10:00Z,00000388,00000608,0001.91,0000.58,0000.58,-000.28,-000.19,0000.37,0000.19,0000.16,0000.03,24.2,05.6,0675.5,30.8
2020-07-22T00:11:00Z,00000388,00000608,0002.44,0001.24,0000.59,0000.76,0000.31,0000.25,-000.05,-000.00,0000.04,24.2,05.6,0675.5,30.8
2020-07-22T00:12:00Z,00000388,00000608,0000.98,0001.17,0000.23,0000.02,-000.11,0000.26,0000.03,-000.03,0000.20,24.2,05.7,0675.5,30.8
2020-07-22T00:13:00Z,00000388,00000608,0001.86,0000.99,0000.79,0000.54,0000.71,-000.18,0000.11,0000.09,-000.08,24.2,05.7,0675.5,30.8
2020-07-22T00:14:00Z,00000388,00000608,0000.79,0000.69,0000.43,0000.07,0000.48,-000.11,0000.26,0000.12,0000.09,24.2,05.7,0675.5,30.8
2020-07-22T00:15:00Z,00000388,00000608,0001.02,0000.80,0000.85,0000.32,0000.05,0000.19,0000.06,0000.28,0000.17,24.2,05.6,0675.5,30.8
2020-07-22T00:16:00Z,00000388,00000608,0001.46,0000.32,0000.74,0000.56,-000.09,-000.28,0000.02,-000.02,-000.00,24.2,05.6,0675.5,30.8
2020-07-22T00:17:00Z,00000388,00000608,0001.76,0001.56,0000.36,0000.22,0000.23,-000.29,0000.22,0000.28,0000.17,24.2,05.5,0675.5,30.8
2020-07-22T00:18:00Z,00000388,00000608,0002.03,0001.08,0000.67,0000.74,-000.15,-000.07,-000.12,-000.28,-000.12,24.2,05.6,0675.5,30.8
2020-07-22T00:19:00Z,00000388,00000608,0000.10,0001.07,0000.56,0000.04,-000.00,-000.06,0000.08,0000.26,0000.26,24.2,05.5,0675.5,30.8
2020-07-22T00:20:00Z,00000388,00000608,0002.19,0001.04,0000.23,0001.23,0000.19,-000.34,0000.22,0000.07,-000.11,24.2,05.5,0675.5,30.8
2020-07-22T00:21:00Z,00000388,00000608,0000.26,0000.85,0000.26,0001.42,0000.05,0000.51,-000.01,0000.11,0000.13,24.1,05.5,0675.5,30.8
2020-07-22T00:22:00Z,00000388,00000608,0001.41,0000.95,0000.21,0000.25,0000.28,-000.08,0000.36,0000.25,0000.20,24.2,05.6,0675.5,30.8
2020-07-22T00:23:00Z,00000388,00000608,0001.22,0001.32,0000.51,0000.38,0000.21,0000.56,0000.16,0000.24,0000.22,24.2,05.5,0675.5,30.8
2020-07-22T00:24:00Z,00000388,00000608,0001.45,0000.46,0000.34,0000.10,0000.28,0000.09,-000.03,-000.07,-000.14,24.1,05.6,0675.5,30.8
2020-07-22T00:25:00Z,00000388,00000608,-000.11,0000.43,0000.58,-000.29,-000.17,0000.25,-000.04,0000.07,0000.14,24.1,05.6,0675.5,30.8
2020-07-22T00:26:00Z,00000388,00000608,0000.53,0000.16,0001.16,0000.06,0000.14,0000.12,0000.33,0000.35,-000.02,24.1,05.6,0675.5,30.8
2020-07-22T00:27:00Z,00000388,00000608,0001.17,0001.17,0000.95,-000.11,0000.59,0000.36,-000.07,-000.03,0000.22,24.1,05.6,0675.5,30.8
2020-07-22T00:28:00Z,00000388,00000608,0000.94,0001.75,0000.47,0000.66,0000.21,-000.12,0000.36,0000.07,0000.03,24.1,05.5,0675.5,30.8
2020-07-22T00:29:00Z,00000388,00000608,0001.91,0001.47,0000.55,0000.64,0000.43,0000.07,-000.06,-000.00,0000.01,24.1,05.5,0675.5,30.8
2020-07-22T00:30:00Z,00000388,00000608,0000.87,0001.06,0000.52,-000.63,0000.21,0000.39,-000.00,-000.13,0000.05,24.1,05.5,0675.5,30.8
2020-07-22T00:31:00Z,00000388,00000608,0002.39,0000.96,0000.48,0000.48,0000.02,-000.20,0000.09,0000.35,0000.06,24.1,05.5,0675.5,30.8
2020-07-22T00:32:00Z,00000388,00000608,0001.26,0000.67,0000.75,0000.84,-000.17,0000.27,0000.34,0000.01,0000.26,24.1,05.5,0675.5,30.8
2020-07-22T00:33:00Z,00000388,00000608,0001.49,0000.82,0000.88,0000.80,0000.39,0000.66,-000.05,0000.23,0000.05,24.1,05.5,0675.5,30.8
2020-07-22T00:34:00Z,00000388,00000608,0001.49,0000.90,0000.70,0000.13,-000.00,0000.16,0000.24,0000.28,0000.21,24.1,05.5,0675.5,30.8
2020-07-22T00:35:00Z,00000388,00000608,0000.71,0001.15,0000.35,0001.22,-000.07,0000.00,0000.05,0000.13,-000.04,24.1,05.6,0675.5,30.8
2020-07-22T00:36:00Z,00000388,00000608,0001.38,0000.80,0000.56,-000.01,0000.14,0000.39,0000.32,0000.14,0000.08,24.1,05.6,0675.5,30.8
2020-07-22T00:37:00Z,00000388,00000608,0001.68,0001.15,0000.58,0000.61,0000.28,0000.13,0000.08,0000.03,0000.25,24.1,05.6,0675.5,30.8
2020-07-22T00:38:00Z,00000388,00000608,0000.88,0000.59,0000.45,0000.17,0000.16,-000.14,0000.14,0000.13,0000.01,24.1,05.6,0675.5,30.8
2020-07-22T00:39:00Z,00000388,00000608,0000.08,0000.95,0000.60,0000.43,0000.28,-000.14,0000.02,-000.13,0000.05,24.1,05.6,0675.5,30.8
2020-07-22T00:40:00Z,00000388,00000608,0001.72,0001.05,0000.70,0000.86,0000.17,0000.01,0000.21,0000.31,0000.08,24.1,05.6,0675.5,30.8
2020-07-22T00:41:00Z,00000388,00000608,0001.94,0000.55,0000.42,0000.60,0000.19,0000.35,0000.14,0000.07,0000.08,24.1,05.6,0675.5,30.8
2020-07-22T00:42:00Z,00000388,00000608,0000.96,0001.30,0000.74,0000.95,0000.06,0000.09,0000.10,0000.25,0000.22,24.0,05.6,0675.5,30.8
2020-07-22T00:43:00Z,00000388,00000608,0001.22,0000.91,0000.27,0000.51,0000.38,0000.11,0000.07,-000.03,0000.09,24.1,05.6,0675.6,30.8
2020-07-22T00:44:00Z,00000388,00000608,0002.03,0000.79,0000.47,0000.05,0000.46,0000.11,0000.15,0000.20,0000.10,24.1,05.6,0675.6,30.8
2020-07-22T00:45:00Z,00000388,00000608,0001.07,0001.08,0000.43,0001.27,0000.37,0000.11,0000.25,0000.08,-000.03,24.1,05.6,0675.6,30.8
2020-07-22T00:46:00Z,00000388,00000608,0001.36,0000.93,0000.46,0000.16,0000.05,0000.26,-000.06,0000.11,0000.05,24.1,05.6,0675.5,30.8
2020-07-22T00:47:00Z,00000388,00000608,0002.33,0001.31,0000.48,0000.83,-000.23,-000.25,0000.13,0000.08,0000.07,24.0,05.5,0675.5,30.8
2020-07-22T00:48:00Z,00000388,00000608,0001.12,0001.02,0000.47,0000.90,0000.20,-000.36,0000.24,0000.27,0000.23,24.0,05.5,0675.5,30.8
2020-07-22T00:49:00Z,00000388,00000608,0001.94,0001.54,0000.31,0000.94,-000.08,0000.07,0000.13,0000.01,-000.01,24.0,05.6,0675.6,30.8
2020-07-22T00:50:00Z,00000388,00000608,0001.97,0001.44,0000.51,0001.37,0000.41,0000.51,0000.06,0000.04,0000.20,24.0,05.5,0675.6,30.8
2020-07-22T00:51:00Z,00000388,00000608,0001.39,0000.76,0000.94,0000.34,0000.08,0000.28,0000.11,0000.19,0000.06,24.0,05.5,0675.6,30.8
2020-07-22T00:52:00Z,00000388,00000608,0001.38,0001.50,0001.16,-000.97,0000.58,0000.29,0000.23,-000.01,0000.07,24.0,05.4,0675.5,30.8
2020-07-22T00:53:00Z,00000388,00000608,0002.17,0001.12,0001.18,0000.11,0000.21,0000.33,0000.08,0000.21,0000.06,24.0,05.4,0675.5,30.8
2020-07-22T00:54:00Z,00000388,00000608,0001.89,0001.06,0000.59,-000.01,0000.47,0000.23,0000.09,0000.10,0000.10,24.0,05.5,0675.6,30.8
2020-07-22T00:55:00Z,00000388,00000608,0002.26,0001.18,0000.59,0000.95,0000.15,-000.03,0000.08,0000.18,0000.13,24.0,05.4,0675.6,30.8
2020-07-22T00:56:00Z,00000388,00000608,0002.63,0001.26,0000.72,0000.80,0000.32,-000.11,0000.14,0000.13,-000.03,24.0,05.4,0675.6,30.8
2020-07-22T00:57:00Z,00000388,40000608,,,,,,,,,,24.0,05.4,0675.6,30.8
2020-07-22T00:58:00Z,00000388,60000608,,,,,,,,,,24.1,05.4,0674.6,30.8
2020-07-22T00:59:00Z,00000388,20000608,,,,,,,,,,24.2,05.4,0674.5,30.8
2020-07-22T01:00:00Z,00000388,20000608,,,,,,,,,,24.2,05.4,0674.5,30.8
2020-07-22T01:01:00Z,00000388,20000608,,,,,,,,,,24.2,05.4,0674.5,30.8
2020-07-22T01:02:00Z,00000388,20000608,,,,,,,,,,24.2,05.4,0674.5,30.8
2020-07-22T01:03:00Z,00000388,60000608,,,,,,,,,,24.3,05.4,0674.5,30.8
2020-07-22T01:04:00Z,00000388,40000608,0002.11,0001.20,0001.06,0000.28,-000.04,0000.38,0000.03,0000.10,0000.05,24.1,05.4,0675.5,30.8
2020-07-22T01:05:00Z,00000388,00000608,0001.99,0001.43,0000.77,0000.29,0000.26,0000.43,0000.19,0000.03,0000.05,24.0,05.5,0675.6,30.8
2020-07-22T01:06:00Z,00000388,00000608,0001.69,0001.48,0000.53,-000.44,0000.30,-000.04,0000.19,0000.32,0000.22,24.0,05.5,0675.6,30.8
2020-07-22T01:07:00Z,00000388,00000608,0001.49,0001.58,0000.27,0000.00,-000.09,0000.04,0000.11,0000.18,0000.09,24.0,05.5,0675.6,30.8
2020-07-22T01:08:00Z,00000388,00000608,0001.98,0001.79,0001.00,0000.89,0000.09,0000.14,0000.30,0000.27,0000.16,24.0,05.5,0675.6,30.8
2020-07-22T01:09:00Z,00000388,00000608,0002.53,0001.77,0000.89,0000.55,0000.18,0000.64,0000.11,-000.06,0000.03,24.0,05.5,0675.6,30.8
2020-07-22T01:10:00Z,00000388,00000608,0002.30,0001.92,0001.12,0000.03,0000.22,0000.12,0000.12,0000.09,0000.32,23.9,05.5,0675.6,30.8
2020-07-22T01:11:00Z,00000388,00000608,0001.51,0001.18,0000.49,0000.42,0000.17,-000.03,0000.13,0000.28,0000.03,23.9,05.5,0675.6,30.8
2020-07-22T01:12:00Z,00000388,00000608,0001.95,0001.63,0000.12,0000.13,-000.04,0000.59,0000.24,0000.06,0000.13,23.9,05.5,0675.6,30.7
2020-07-22T01:13:00Z,00000388,00000608,0001.80,0001.46,0000.72,0000.16,0000.18,0000.51,0000.06,0000.14,0000.17,23.9,05.5,0675.6,30.7
2020-07-22T01:14:00Z,00000388,00000608,0001.29,0001.48,0000.27,0000.15,0000.05,0000.66,0000.19,0000.20,0000.03,23.9,05.5,0675.6,30.8
2020-07-22T01:15:00Z,00000388,00000608,0002.82,0001.07,0000.70,0000.08,-000.15,0000.40,0000.28,0000.22,0000.10,23.9,05.5,0675.6,30.8
2020-07-22T01:16:00Z,00000388,00000608,0000.53,0001.49,0000.42,-000.03,0000.27,0000.43,0000.23,0000.32,0000.25,23.9,05.6,0675.6,30.8
2020-07-22T01:17:00Z,00000388,00000608,0002.78,0001.84,0000.77,-000.22,0000.39,0000.22,0000.21,0000.12,0000.12,23.9,05.6,0675.6,30.8
2020-07-22T01:18:00Z,00000388,00000608,0002.67,0001.92,0000.65,0000.50,-000.06,0000.56,0000.02,0000.14,0000.20,23.9,05.7,0675.6,30.8
2020-07-22T01:19:00Z,00000388,00000608,0002.39,0001.77,0000.63,0000.31,-000.21,0000.25,0000.41,0000.24,0000.21,23.9,05.8,0675.6,30.8
2020-07-22T01:20:00Z,00000388,00000608,0002.19,0001.99,0000.76,0000.89,0000.30,0000.21,0000.19,0000.27,0000.13,23.9,05.7,0675.6,30.7
2020-07-22T01:21:00Z,00000388,00000608,0002.15,0001.64,0000.69,0000.23,0000.21,0000.50,0000.12,-000.14,0000.00,23.9,05.7,0675.6,30.7
2020-07-22T01:22:00Z,00000388,00000608,0002.61,0001.49,0000.90,0000.26,0000.33,0000.46,0000.11,0000.35,0000.25,23.9,05.8,0675.6,30.8
2020-07-22T01:23:00Z,00000388,00000608,0002.36,0001.53,0000.70,0000.35,-000.05,0000.45,0000.24,0000.17,0000.10,23.9,05.8,0675.6,30.7
2020-07-22T01:24:00Z,00000388,00000608,0000.67,0001.65,0000.72,0000.02,0000.06,0000.24,0000.21,0000.17,0000.06,23.9,05.8,0675.6,30.7
2020-07-22T01:25:00Z,00000388,00000608,0002.11,0001.30,0000.42,0000.12,-000.08,0000.57,0000.25,0000.21,0000.23,23.9,05.8,0675.6,30.7
2020-07-22T01:26:00Z,00000388,00000608,0001.39,0001.59,0000.68,-000.35,0000.16,0000.44,0000.10,0000.05,0000.13,23.9,05.8,0675.6,30.7
2020-07-22T01:27:00Z,00000388,00000608,0002.13,0001.73,0000.40,0000.26,-000.29,0000.01,0000.13,0000.29,0000.20,23.9,05.8,0675.6,30.7
2020-07-22T01:28:00Z,00000388,00000608,0002.19,0001.36,0000.79,0000.78,-000.20,0000.20,0000.16,0000.16,0000.03,23.8,05.9,0675.6,30.7
2020-07-22T01:29:00Z,00000388,00000608,0002.09,0001.56,0001.01,0000.47,-000.22,0000.42,0000.21,0000.13,0000.13,23.8,05.8,0675.6,30.7
2020-07-22T01:30:00Z,00000388,00000608,0002.53,0001.46,0000.83,-000.14,0000.26,0000.41,0000.19,0000.22,0000.13,23.8,05.9,0675.6,30.7
2020-07-22T01:31:00Z,00000388,00000608,0002.28,0002.01,0000.44,0000.30,-000.17,0000.54,0000.12,0000.01,0000.16,23.8,05.9,0675.6,30.7
2020-07-22T01:32:00Z,00000388,00000608,0002.69,0002.25,0000.53,0000.41,0000.54,0000.09,0000.26,0000.22,0000.27,23.8,05.8,0675.6,30.7
2020-07-22T01:33:00Z,00000388,00000608,0001.66,0001.71,0000.35,0000.52,-000.24,0000.39,0000.14,0000.15,-000.00,23.8,05.8,0675.6,30.7
2020-07-22T01:34:00Z,00000388,00000608,0002.88,0002.17,0000.10,0000.28,0000.11,0000.40,0000.19,0000.21,0000.20,23.8,05.8,0675.6,30.7
2020-07-22T01:35:00Z,00000388,00000608,0002.32,0001.96,0000.99,-000.03,0000.18,0000.45,0000.09,0000.03,0000.00,23.8,05.7,0675.6,30.7
2020-07-22T01:36:00Z,00000388,00000608,0001.90,0001.56,0001.47,-000.49,0000.21,0000.41,0000.16,0000.15,0000.29,23.8,05.7,0675.6,30.7
2020-07-22T01:37:00Z,00000388,00000608,0002.88,0001.67,0000.81,-000.16,0000.15,0000.13,0000.05,0000.07,-000.08,23.8,05.7,0675.6,30.7
2020-07-22T01:38:00Z,00000388,00000608,0002.72,0001.38,0000.68,0001.57,0000.05,-000.02,0000.19,0000.19,0000.16,23.8,05.8,0675.6,30.7
2020-07-22T01:39:00Z,00000388,00000608,0001.53,0001.69,0000.27,0000.70,0000.29,0000.65,0000.36,0000.18,0000.23,23.8,05.7,0675.6,30.7
2020-07-22T01:40:00Z,00000388,00000608,0002.82,0002.18,0000.62,0000.43,0000.11,0000.47,0000.14,0000.24,0000.02,23.8,05.7,0675.6,30.7
2020-07-22T01:41:00Z,00000388,00000608,0002.71,0001.82,0000.89,0000.22,0000.51,0000.20,0000.17,0000.18,0000.13,23.8,05.7,0675.6,30.7
2020-07-22T01:42:00Z,00000388,00000608,0002.75,0002.24,0000.88,0000.52,0000.15,0000.06,-000.02,0000.09,0000.19,23.8,05.7,0675.6,30.7
2020-07-22T01:43:00Z,00000388,00000608,0003.06,0001.74,0000.62,0000.31,-000.29,0000.45,0000.29,0000.13,0000.11,23.8,05.7,0675.6,30.7
2020-07-22T01:44:00Z,00000388,00000608,0003.66,0002.15,0001.09,-000.12,0000.01,0000.60,0000.06,0000.07,0000.01,23.8,05.7,0675.6,30.7
2020-07-22T01:45:00Z,00000388,00000608,0001.96,0001.77,0000.51,0000.32,0000.03,0000.24,0000.13,0000.19,0000.28,23.8,05.7,0675.6,30.7
2020-07-22T01:46:00Z,00000388,00000608,0003.25,0001.81,0001.01,0001.00,0000.60,0000.60,0000.11,0000.12,0000.01,23.8,05.6,0675.6,30.7
2020-07-22T01:47:00Z,00000388,00000608,0002.73,0001.67,0000.91,-000.15,0000.25,0000.55,0000.25,0000.16,0000.25,23.8,05.7,0675.6,30.7
2020-07-22T01:48:00Z,00000388,00000608,0002.74,0001.77,0000.46,0000.43,0000.07,0000.27,0000.11,0000.16,0000.13,23.8,05.7,0675.6,30.7
2020-07-22T01:49:00Z,00000388,00000608,0002.50,0001.79,0001.04,0000.01,0000.33,0000.71,0000.16,0000.15,0000.07,23.8,05.6,0675.7,30.7
2020-07-22T01:50:00Z,00000388,00000608,0001.99,0001.54,0000.35,-000.03,-000.05,0000.40,0000.16,0000.16,0000.10,23.7,05.7,0675.7,30.7
2020-07-22T01:51:00Z,00000388,00000608,0003.27,0002.12,0000.75,0000.58,-000.19,0000.57,0000.21,0000.20,0000.03,23.8,05.7,0675.7,30.7
2020-07-22T01:52:00Z,00000388,00000608,0002.83,0001.40,0000.85,0000.38,0000.44,0000.60,0000.10,0000.16,0000.10,23.8,05.7,0675.7,30.7
2020-07-22T01:53:00Z,00000388,00000608,0002.18,0001.03,0000.65,-000.87,0000.11,0000.02,0000.23,0000.22,0000.28,23.7,05.7,0675.6,30.7
2020-07-22T01:54:00Z,00000388,00000608,0002.43,0000.83,0000.36,0000.16,0000.59,0000.08,0000.25,0000.09,0000.09,23.7,05.8,0675.7,30.7
2020-07-22T01:55:00Z,00000388,00000608,0002.64,0002.32,0000.79,0000.36,0000.25,0000.05,0000.18,0000.36,0000.32,23.7,05.7,0675.6,30.7
2020-07-22T01:56:00Z,00000388,00000608,0002.10,0001.87,0000.59,-000.01,0000.28,0000.26,0000.12,-000.04,0000.02,23.7,05.8,0675.6,30.7
2020-07-22T01:57:00Z,00000388,40000608,,,,,,,,,,23.8,05.7,0675.7,30.7
2020-07-22T01:58:00Z,00000388,60000608,,,,,,,,,,23.9,05.5,0674.7,30.7
2020-07-22T01:59:00Z,00000388,20000608,,,,,,,,,,24.0,05.5,0674.6,30.7
2020-07-22T02:00:00Z,00000388,20000608,,,,,,,,,,24.0,05.5,0674.6,30.7
2020-07-22T02:01:00Z,00000388,20000608,,,,,,,,,,24.0,05.5,0674.6,30.7
2020-07-22T02:02:00Z,00000388,20000608,,,,,,,,,,24.0,05.5,0674.6,30.7
2020-07-22T02:03:00Z,00000388,60010608,,,,,,,,,,24.0,05.5,0674.6,30.7
2020-07-22T02:04:00Z,00000388,40000608,0002.81,0001.68,0000.97,0001.43,0000.44,-000.07,0000.17,0000.19,0000.22,23.8,05.6,0675.5,30.7
2020-07-22T02:05:00Z,00000388,00000608,0002.92,0001.49,0000.41,0000.49,0000.50,-000.39,0000.31,-000.04,-000.01,23.8,05.7,0675.6,30.7
2020-07-22T02:06:00Z,00000388,00000608,0003.67,0002.34,0000.88,0001.11,-000.18,0000.07,0000.02,0000.20,0000.19,23.7,05.6,0675.6,30.7
2020-07-22T02:07:00Z,00000388,00000608,0001.98,0002.27,0000.80,0000.75,0000.58,-000.01,0000.21,0000.18,0000.11,23.7,05.6,0675.6,30.7
2020-07-22T02:08:00Z,00000388,00000608,0002.45,0001.94,0001.18,0000.31,0000.31,-000.00,-000.03,-000.09,0000.01,23.7,05.7,0675.6,30.7
2020-07-22T02:09:00Z,00000388,00000608,0001.99,0001.31,0000.74,0001.09,0000.65,-000.28,0000.10,0000.37,0000.16,23.7,05.7,0675.6,30.7
2020-07-22T02:10:00Z,00000388,00000608,0002.21,0001.89,0000.98,0000.76,0000.14,-000.04,0000.16,-000.01,0000.09,23.7,05.7,0675.6,30.7
2020-07-22T02:11:00Z,00000388,00000608,0003.23,0001.61,0000.75,0000.79,0000.38,0000.30,0000.10,0000.12,0000.09,23.7,05.6,0675.6,30.7
2020-07-22T02:12:00Z,00000388,00000608,0001.99,0001.66,0000.60,0000.77,-000.03,-000.28,0000.32,0000.18,0000.02,23.7,05.6,0675.6,30.7
2020-07-22T02:13:00Z,00000388,00000608,0001.50,0002.19,0000.71,0001.25,0000.58,0000.03,-000.03,0000.01,0000.26,23.7,05.6,0675.6,30.7
2020-07-22T02:14:00Z,00000388,00000608,0003.56,0001.58,0000.81,0000.57,0000.38,0000.42,0000.22,0000.38,0000.11,23.7,05.6,0675.6,30.7
2020-07-22T02:15:00Z,00000388,00000608,0001.41,0001.47,0000.31,0000.98,0000.38,0000.12,0000.05,-000.18,0000.07,23.7,05.6,0675.6,30.8
2020-07-22T02:16:00Z,00000388,00000608,0002.58,0001.20,0000.68,0000.48,0000.03,0000.04,0000.14,0000.27,0000.05,23.7,05.6,0675.6,30.7
2020-07-22T02:17:00Z,00000388,00000608,0001.23,0001.53,0000.67,0000.88,0000.32,-000.41,0000.18,0000.11,0000.06,23.7,05.5,0675.6,30.8
2020-07-22T02:18:00Z,00000388,00000608,0002.00,0001.35,0000.41,0000.82,0000.40,-000.33,0000.03,0000.02,0000.14,23.7,05.5,0675.6,30.8
2020-07-22T02:19:00Z,00000388,00000608,0001.88,0001.42,0000.81,0000.56,0000.69,-000.16,0000.16,0000.32,0000.08,23.7,05.5,0675.6,30.8
2020-07-22T02:20:00Z,00000388,00000608,0001.29,0001.95,0000.75,0000.19,0000.34,0000.35,0000.10,0000.04,0000.27,23.7,05.5,0675.6,30.7
2020-07-22T02:21:00Z,00000388,00000608,0001.76,0001.59,0001.46,0000.92,0000.51,0000.25,0000.16,0000.09,0000.00,23.7,05.5,0675.6,30.7
2020-07-22T02:22:00Z,00000388,00000608,0002.12,0001.28,0000.60,0000.66,-000.14,0000.16,0000.22,0000.17,0000.06,23.7,05.5,0675.6,30.8
2020-07-22T02:23:00Z,00000388,00000608,0001.74,0001.43,0000.68,0000.15,0000.56,-000.04,0000.03,0000.12,0000.09,23.7,05.5,0675.6,30.8
2020-07-22T02:24:00Z,00000388,00000608,0000.98,0000.95,0000.85,-000.21,0000.31,0000.10,0000.29,-000.13,0000.11,23.7,05.6,0675.6,30.8
2020-07-22T02:25:00Z,00000388,00000608,0003.14,0001.41,0001.00,0001.31,0000.34,0000.27,0000.09,0000.25,0000.14,23.7,05.5,0675.6,30.8
2020-07-22T02:26:00Z,00000388,00000608,0003.55,0001.58,0000.92,0001.07,0000.78,-000.35,0000.29,0000.39,0000.16,23.7,05.5,0675.6,30.7
2020-07-22T02:27:00Z,00000388,00000608,0002.55,0001.27,0000.52,0001.30,0000.43,-000.23,0000.08,0000.16,0000.12,23.7,05.6,0675.6,30.7
2020-07-22T02:28:00Z,00000388,00000608,0001.49,0001.20,0000.67,0000.42,0000.43,0000.23,0000.01,0000.03,0000.06,23.7,05.6,0675.6,30.7
2020-07-22T02:29:00Z,00000388,00000608,0001.94,0001.45,0001.66,0000.41,0000.41,0000.13,0000.19,0000.11,0000.12,23.7,05.5,0675.6,30.7
2020-07-22T02:30:00Z,00000388,00000608,0001.39,0001.63,0000.58,0000.69,0000.14,-000.31,0000.21,0000.17,0000.10,23.7,05.5,0675.6,30.7
2020-07-22T02:31:00Z,00000388,00000608,0002.99,0001.49,0000.63,0000.52,0000.43,0000.02,0000.07,0000.15,0000.13,23.7,05.5,0675.6,30.7
2020-07-22T02:32:00Z,00000388,00000608,0002.14,0001.32,0000.90,0000.22,0000.31,0000.11,0000.13,-000.00,0000.02,23.7,05.5,0675.6,30.8
2020-07-22T02:33:00Z,00000388,00000608,0001.18,0002.09,0000.73,0000.39,0000.19,-000.01,0000.22,0000.19,0000.20,23.7,05.5,0675.6,30.8
2020-07-22T02:34:00Z,00000388,00000608,0002.42,0001.79,0000.75,-000.56,0000.18,-000.26,0000.20,0000.27,0000.09,23.7,05.5,0675.6,30.8
2020-07-22T02:35:00Z,00000388,00000608,0002.51,0001.17,0000.71,-000.28,0000.20,-000.37,0000.11,0000.08,0000.26,23.7,05.6,0675.6,30.8
2020-07-22T02:36:00Z,00000388,00000608,0002.85,0001.31,0000.50,0000.69,0000.52,0000.07,0000.16,0000.10,0000.05,23.6,05.6,0675.6,30.7
2020-07-22T02:37:00Z,00000388,00000608,0002.46,0000.96,0000.78,0000.88,0000.10,-000.18,0000.09,0000.11,0000.08,23.6,05.5,0675.6,30.7
2020-07-22T02:38:00Z,00000388,00000608,0002.64,0001.35,0000.79,0001.44,0000.35,-000.23,0000.23,0000.21,0000.10,23.7,05.5,0675.6,30.7
2020-07-22T02:39:00Z,00000388,00000608,0002.66,0001.22,0000.48,0000.43,0000.17,-000.39,0000.06,0000.20,0000.18,23.7,05.5,0675.6,30.7
2020-07-22T02:40:00Z,00000388,00000608,0001.32,0001.66,0001.24,0000.74,0000.23,0000.25,0000.12,0000.10,-000.09,23.6,05.5,0675.7,30.7
2020-07-22T02:41:00Z,00000388,00000608,0003.41,0001.52,0000.76,0001.05,0000.28,-000.12,0000.21,0000.13,0000.26,23.6,05.5,0675.7,30.7
2020-07-22T02:42:00Z,00000388,00000608,0002.62,0001.50,0000.13,0000.73,0000.24,-000.13,0000.04,0000.19,0000.00,23.6,05.5,0675.7,30.7
2020-07-22T02:43:00Z,00000388,00000608,0001.46,0001.10,0000.89,-000.01,0000.16,0000.20,0000.27,0000.21,0000.30,23.6,05.5,0675.7,30.7
2020-07-22T02:44:00Z,00000388,00000608,0002.26,0001.42,0000.42,0000.25,0000.51,-000.32,0000.20,0000.07,0000.10,23.6,05.6,0675.7,30.7
2020-07-22T02:45:00Z,00000388,00000608,0001.57,0001.22,0001.00,0000.80,-000.04,0000.48,0000.08,0000.08,0000.05,23.6,05.6,0675.7,30.7
2020-07-22T02:46:00Z,00000388,00000608,0002.47,0001.30,0000.89,0000.81,0000.40,0000.06,0000.13,0000.37,0000.22,23.6,05.6,0675.7,30.7
2020-07-22T02:47:00Z,00000388,00000608,0001.53,0001.40,0000.64,0001.00,0000.04,0000.11,0000.21,0000.01,0000.02,23.6,05.6,0675.7,30.7
2020-07-22T02:48:00Z,00000388,00000608,0001.75,0001.10,0000.58,0000.81,0000.44,-000.08,0000.14,0000.25,0000.17,23.6,05.6,0675.7,30.7
2020-07-22T02:49:00Z,00000388,00000608,0002.32,0001.58,0000.71,0000.31,-000.18,0000.22,0000.19,0000.05,0000.02,23.6,05.6,0675.7,30.7
2020-07-22T02:50:00Z,00000388,00000608,0001.44,0000.98,0000.42,0000.69,0000.28,-000.04,0000.24,0000.07,0000.38,23.6,05.6,0675.7,30.7
2020-07-22T02:51:00Z,00000388,00000608,0001.65,0001.31,0000.79,0000.14,0000.41,-000.09,0000.01,0000.30,-000.06,23.6,05.6,0675.7,30.7
2020-07-22T02:52:00Z,00000388,00000608,0002.45,0001.54,0000.65,0001.11,0000.29,-000.11,0000.14,-000.00,0000.21,23.6,05.6,0675.7,30.7
2020-07-22T02:53:00Z,00000388,00000608,0001.94,0001.27,0001.04,0000.92,0000.23,0000.39,0000.15,0000.18,-000.11,23.6,05.7,0675.7,30.7
2020-07-22T02:54:00Z,00000388,00000608,0002.48,0001.56,0000.64,0000.74,0000.58,-000.01,0000.11,0000.03,0000.25,23.6,05.6,0675.7,30.7
2020-07-22T02:55:00Z,00000388,00000608,0002.35,0001.56,0000.53,0001.00,0000.29,-000.16,0000.15,0000.09,-000.02,23.6,05.5,0675.7,30.7
2020-07-22T02:56:00Z,00000388,00000608,0000.35,0001.36,0000.86,0001.26,0000.29,-000.07,0000.07,0000.17,0000.05,23.6,05.5,0675.7,30.7
2020-07-22T02:57:00Z,00000388,40000608,,,,,,,,,,23.6,05.7,0675.7,30.7
2020-07-22T02:58:00Z,00000388,60000608,,,,,,,,,,23.7,05.4,0674.8,30.7
2020-07-22T02:59:00Z,00000388,20000608,,,,,,,,,,23.8,05.4,0674.7,30.8
2020-07-22T03:00:00Z,00000388,20000608,,,,,,,,,,23.9,05.4,0674.7,30.8
2020-07-22T03:01:00Z,00000388,20000608,,,,,,,,,,23.9,05.4,0674.7,30.8
2020-07-22T03:02:00Z,00000388,20000608,,,,,,,,,,23.9,05.4,0674.7,30.8
2020-07-22T03:03:00Z,00000388,60000608,,,,,,,,,,23.9,05.4,0674.7,30.8
2020-07-22T03:04:00Z,00000388,40000608,0001.64,0001.37,0001.11,0000.66,0000.16,0000.18,-000.01,0000.13,0000.09,23.8,05.3,0675.6,30.7
2020-07-22T03:05:00Z,00000388,00000608,0002.65,0001.29,0001.04,-000.18,0000.58,0000.14,0000.25,0000.18,-000.02,23.7,05.4,0675.7,30.7
2020-07-22T03:06:00Z,00000388,00000608,0001.51,0001.73,0000.94,0001.05,-000.18,0000.11,-000.00,0000.26,0000.16,23.7,05.4,0675.7,30.7
2020-07-22T03:07:00Z,00000388,00000608,0001.71,0001.16,0000.77,-000.15,0000.25,0000.15,0000.31,0000.09,0000.08,23.7,05.4,0675.7,30.7
2020-07-22T03:08:00Z,00000388,00000608,0002.09,0001.28,0001.07,0000.60,0000.41,0000.31,0000.19,0000.25,0000.22,23.7,05.5,0675.7,30.7
2020-07-22T03:09:00Z,00000388,00000608,0002.56,0001.46,0000.46,0000.48,0000.32,0000.07,-000.04,0000.02,0000.05,23.7,05.5,0675.7,30.7
2020-07-22T03:10:00Z,00000388,00000608,0002.08,0001.82,0001.08,0000.41,0000.09,0000.21,0000.21,0000.12,0000.15,23.7,05.5,0675.7,30.7